^^
Grace C. Lehan Memorial Weather Station Historical Data
Daily Summary for May 26, 2021 Units:  Metric    English   Both
Daily Weekly Monthly Yearly
  High: Low: Average:
Temperature: 29.8 °C 19.3 °C 24.4 °C
Dew Point: 23.2 °C 17.7 °C 21 °C
Humidity: 94% 65.4% 82%
Wind Speed: 5.5km/h 0km/h 1.1km/h
Wind Gust: 20.9km/h - -
Wind- - SSW
Pressure: 1023.9 hPa 1019.9 hPa -
Precipitation: 0 mm    
 
 
Tabular Data for May 26, 2021
Time Temperature Dew Point Pressure Wind Wind Speed Wind Gust Humidity Rainfall Rate (Hourly) solar
00:09 19.3 °C 17.7 °C 1023.6 hPa South 0.2 km/h 1.6 km/h 90% 0 mm 0 W/m2
00:14 19.4 °C 17.7 °C 1023.6 hPa Calm   1.6 km/h 90% 0 mm 0 W/m2
00:19 19.4 °C 17.7 °C 1023.2 hPa South 0.2 km/h 1.6 km/h 90% 0 mm 0 W/m2
00:24 19.4 °C 17.7 °C 1023.2 hPa South 0.5 km/h 8 km/h 90% 0 mm 0 W/m2
00:29 19.4 °C 17.8 °C 1023.2 hPa Calm   8 km/h 90% 0 mm 0 W/m2
00:34 19.4 °C 17.8 °C 1023.2 hPa South 0.2 km/h 8 km/h 90% 0 mm 0 W/m2
00:39 19.4 °C 17.7 °C 1023.2 hPa Calm   4.8 km/h 90% 0 mm 0 W/m2
00:44 19.4 °C 17.8 °C 1023.2 hPa Calm   4.8 km/h 90% 0 mm 0 W/m2
00:49 19.4 °C 17.7 °C 1023.2 hPa Calm   4.8 km/h 90% 0 mm 0 W/m2
00:54 19.4 °C 17.7 °C 1023.2 hPa Calm   4.8 km/h 90% 0 mm 0 W/m2
00:59 19.4 °C 17.7 °C 1023.2 hPa Calm   4.8 km/h 90% 0 mm 0 W/m2
01:04 19.4 °C 17.7 °C 1023.2 hPa SSW 0.3 km/h 8 km/h 90% 0 mm 0 W/m2
01:09 19.4 °C 17.7 °C 1023.2 hPa Calm   8 km/h 90% 0 mm 0 W/m2
01:14 19.4 °C 17.7 °C 1023.2 hPa Calm   8 km/h 90% 0 mm 0 W/m2
01:19 19.4 °C 17.8 °C 1023.2 hPa Calm   8 km/h 90% 0 mm 0 W/m2
01:24 19.4 °C 17.8 °C 1023.2 hPa Calm   8 km/h 90% 0 mm 0 W/m2
01:29 19.4 °C 17.8 °C 1023.2 hPa Calm   8 km/h 90% 0 mm 0 W/m2
01:34 19.5 °C 17.8 °C 1023.2 hPa Calm   8 km/h 90% 0 mm 0 W/m2
01:39 19.5 °C 17.8 °C 1023.2 hPa Calm     90% 0 mm 0 W/m2
01:44 19.5 °C 17.8 °C 1023.2 hPa Calm     90% 0 mm 0 W/m2
01:49 19.5 °C 17.8 °C 1023.2 hPa Calm   3.2 km/h 90% 0 mm 0 W/m2
01:54 19.6 °C 17.8 °C 1022.9 hPa Calm   3.2 km/h 90% 0 mm 0 W/m2
01:59 19.6 °C 17.9 °C 1022.9 hPa Calm   3.2 km/h 90% 0 mm 0 W/m2
02:04 19.6 °C 17.9 °C 1022.9 hPa Calm   3.2 km/h 90% 0 mm 0 W/m2
02:09 19.6 °C 17.9 °C 1022.9 hPa Calm     90% 0 mm 0 W/m2
02:14 19.6 °C 17.9 °C 1022.9 hPa Calm     90% 0 mm 0 W/m2
02:15 19.6 °C 17.9 °C 1022.9 hPa Calm     90% 0 mm 0 W/m2
02:30 19.6 °C 17.9 °C 1022.9 hPa Calm     90% 0 mm 0 W/m2
03:00 19.7 °C 18.1 °C 1022.9 hPa Calm     90% 0 mm 0 W/m2
03:30 19.9 °C 18.3 °C 1022.6 hPa Calm   1.6 km/h 90% 0 mm 0 W/m2
04:04 19.9 °C 18.3 °C 1022.6 hPa Calm     90% 0 mm 0 W/m2
04:09 19.9 °C 18.3 °C 1022.9 hPa Calm     90% 0 mm 0 W/m2
04:14 19.9 °C 18.3 °C 1022.9 hPa Calm     90% 0 mm 0 W/m2
04:19 19.9 °C 18.3 °C 1022.9 hPa Calm     90.4% 0 mm 0 W/m2
04:24 19.9 °C 18.4 °C 1022.9 hPa Calm     91% 0 mm 0 W/m2
04:29 19.9 °C 18.4 °C 1022.9 hPa Calm     91% 0 mm 0 W/m2
04:34 19.9 °C 18.4 °C 1022.9 hPa Calm     91% 0 mm 0 W/m2
04:39 19.9 °C 18.4 °C 1022.9 hPa Calm     91% 0 mm 0 W/m2
04:44 20 °C 18.4 °C 1022.9 hPa Calm     91% 0 mm 0 W/m2
04:49 20 °C 18.5 °C 1022.9 hPa Calm     91% 0 mm 0 W/m2
04:54 20 °C 18.5 °C 1023.2 hPa Calm     91% 0 mm 0 W/m2
04:59 20 °C 18.5 °C 1023.2 hPa Calm     91% 0 mm 0 W/m2
05:04 20 °C 18.5 °C 1023.2 hPa Calm     91% 0 mm 0 W/m2
05:09 20.1 °C 18.6 °C 1023.2 hPa Calm     91% 0 mm 0 W/m2
05:14 20.1 °C 18.6 °C 1023.2 hPa Calm     91% 0 mm 0 W/m2
05:19 20.1 °C 18.6 °C 1023.2 hPa Calm     91% 0 mm 0 W/m2
05:24 20.1 °C 18.6 °C 1023.2 hPa Calm     91% 0 mm 0 W/m2
05:29 20.1 °C 18.6 °C 1023.2 hPa Calm     91% 0 mm 0 W/m2
05:34 20.2 °C 18.7 °C 1023.2 hPa Calm     91% 0 mm 0 W/m2
05:39 20.2 °C 18.7 °C 1023.2 hPa Calm     91% 0 mm 0 W/m2
05:44 20.2 °C 18.9 °C 1023.2 hPa Calm     91.9% 0 mm 0 W/m2
05:49 20.3 °C 18.9 °C 1023.2 hPa Calm     92% 0 mm 0 W/m2
05:54 20.3 °C 18.9 °C 1023.2 hPa Calm     92% 0 mm 5 W/m2
05:59 20.3 °C 18.9 °C 1023.2 hPa Calm     92% 0 mm 5 W/m2
06:04 20.3 °C 18.9 °C 1023.2 hPa Calm     92% 0 mm 5 W/m2
06:09 20.3 °C 19 °C 1023.2 hPa Calm     92% 0 mm 7 W/m2
06:14 20.3 °C 19 °C 1023.2 hPa Calm     92% 0 mm 7 W/m2
06:19 20.3 °C 19 °C 1023.6 hPa Calm     92% 0 mm 16 W/m2
06:24 20.4 °C 19.1 °C 1023.6 hPa Calm     92% 0 mm 16 W/m2
06:29 20.4 °C 19.1 °C 1023.6 hPa Calm     92% 0 mm 32 W/m2
06:34 20.4 °C 19.1 °C 1023.6 hPa Calm     92% 0 mm 32 W/m2
06:39 20.4 °C 19.2 °C 1023.9 hPa Calm     92.4% 0 mm 30 W/m2
06:44 20.4 °C 19.3 °C 1023.9 hPa Calm     93% 0 mm 37 W/m2
06:49 20.5 °C 19.3 °C 1023.6 hPa Calm     93% 0 mm 47 W/m2
06:54 20.5 °C 19.3 °C 1023.6 hPa Calm     93% 0 mm 47 W/m2
06:59 20.6 °C 19.4 °C 1023.6 hPa Calm     93% 0 mm 47 W/m2
07:04 20.6 °C 19.4 °C 1023.6 hPa Calm     93% 0 mm 46 W/m2
07:09 20.6 °C 19.4 °C 1023.6 hPa Calm     93% 0 mm 69 W/m2
07:14 20.7 °C 19.5 °C 1023.6 hPa Calm     93% 0 mm 86 W/m2
07:19 20.7 °C 19.6 °C 1023.6 hPa Calm   1.6 km/h 93.4% 0 mm 86 W/m2
07:24 20.8 °C 19.8 °C 1023.6 hPa Calm   1.6 km/h 94% 0 mm 76 W/m2
07:29 20.8 °C 19.8 °C 1023.6 hPa Calm   1.6 km/h 94% 0 mm 69 W/m2
07:34 20.9 °C 19.7 °C 1023.6 hPa Calm   1.6 km/h 93.1% 0 mm 69 W/m2
07:39 20.9 °C 19.8 °C 1023.6 hPa Calm     93% 0 mm 62 W/m2
07:44 21 °C 19.8 °C 1023.6 hPa Calm     93% 0 mm 72 W/m2
07:49 21.1 °C 19.9 °C 1023.6 hPa Calm     93% 0 mm 79 W/m2
07:54 21.2 °C 20 °C 1023.6 hPa Calm     93% 0 mm 69 W/m2
07:59 21.3 °C 20.1 °C 1023.6 hPa Calm     93% 0 mm 72 W/m2
08:09 21.4 °C 20.1 °C 1023.6 hPa Calm     92% 0 mm 88 W/m2
08:14 21.6 °C 20.2 °C 1023.6 hPa Calm     92% 0 mm 127 W/m2
08:19 21.7 °C 20.3 °C 1023.6 hPa Calm   1.6 km/h 92% 0 mm 128 W/m2
08:24 21.8 °C 20.4 °C 1023.2 hPa WSW 0.2 km/h 6.4 km/h 91.8% 0 mm 142 W/m2
08:29 22 °C 20.4 °C 1023.6 hPa Calm   6.4 km/h 91% 0 mm 169 W/m2
08:34 22.1 °C 20.6 °C 1023.6 hPa Calm   6.4 km/h 90.8% 0 mm 146 W/m2
08:39 22.3 °C 20.8 °C 1023.2 hPa WSW 0.2 km/h 4.8 km/h 90.8% 0 mm 178 W/m2
08:44 22.5 °C 20.8 °C 1023.2 hPa Calm   4.8 km/h 90% 0 mm 207 W/m2
08:49 22.7 °C 20.9 °C 1023.2 hPa WSW 0.6 km/h 8 km/h 89.7% 0 mm 207 W/m2
08:54 22.9 °C 20.9 °C 1023.2 hPa WSW 0.3 km/h 8 km/h 88.4% 0 mm 288 W/m2
08:59 23.1 °C 20.9 °C 1023.2 hPa SW 1.3 km/h 9.7 km/h 87.6% 0 mm 214 W/m2
09:04 23.3 °C 21 °C 1023.2 hPa SW 2.1 km/h 11.3 km/h 86.8% 0 mm 276 W/m2
09:09 23.5 °C 20.9 °C 1023.2 hPa WSW 1.3 km/h 11.3 km/h 85.8% 0 mm 271 W/m2
09:14 23.7 °C 21 °C 1023.2 hPa WSW 2.9 km/h 20.9 km/h 85% 0 mm 234 W/m2
09:19 23.8 °C 21.1 °C 1023.2 hPa SSW 1.3 km/h 20.9 km/h 84.5% 0 mm 214 W/m2
09:24 23.9 °C 21.1 °C 1023.2 hPa SSW 0.2 km/h 20.9 km/h 84% 0 mm 225 W/m2
09:29 24.1 °C 21.3 °C 1022.9 hPa SW 1.1 km/h 20.9 km/h 84.3% 0 mm 295 W/m2
09:34 24.2 °C 21.2 °C 1022.9 hPa SW 1.3 km/h 20.9 km/h 83.3% 0 mm 241 W/m2
09:39 24.4 °C 21.4 °C 1022.9 hPa SW 1.9 km/h 11.3 km/h 83.3% 0 mm 292 W/m2
09:44 24.6 °C 21.5 °C 1022.9 hPa SSW 0.2 km/h 11.3 km/h 82.9% 0 mm 322 W/m2
09:49 24.8 °C 21.6 °C 1022.9 hPa WSW 1.8 km/h 11.3 km/h 82.3% 0 mm 297 W/m2
09:54 24.9 °C 21.6 °C 1022.9 hPa SW 1.1 km/h 11.3 km/h 81.4% 0 mm 323 W/m2
09:59 25.2 °C 21.6 °C 1022.9 hPa SW 1.3 km/h 11.3 km/h 80.8% 0 mm 786 W/m2
10:04 25.6 °C 21.9 °C 1022.9 hPa Calm   11.3 km/h 80.5% 0 mm 452 W/m2
10:09 25.8 °C 22 °C 1022.9 hPa WSW 0.2 km/h 4.8 km/h 79.2% 0 mm 858 W/m2
10:14 26.3 °C 22.3 °C 1022.9 hPa SW 0.8 km/h 9.7 km/h 79% 0 mm 858 W/m2
10:19 26.7 °C 22.4 °C 1022.9 hPa WSW 1.9 km/h 9.7 km/h 77.3% 0 mm 369 W/m2
10:24 26.9 °C 22.1 °C 1022.9 hPa SW 1 km/h 11.3 km/h 75% 0 mm 381 W/m2
10:29 27 °C 22.2 °C 1022.9 hPa WSW 1 km/h 11.3 km/h 75.2% 0 mm 232 W/m2
10:34 27 °C 22.1 °C 1022.9 hPa WSW 0.5 km/h 11.3 km/h 74.3% 0 mm 258 W/m2
10:39 26.9 °C 22.2 °C 1022.9 hPa WSW 0.3 km/h 8 km/h 74.9% 0 mm 258 W/m2
10:44 26.9 °C 22.1 °C 1022.9 hPa WSW 0.3 km/h 8 km/h 74.7% 0 mm 397 W/m2
10:49 27 °C 22.1 °C 1022.9 hPa WSW 1.3 km/h 8 km/h 74.5% 0 mm 192 W/m2
10:54 27 °C 21.9 °C 1022.9 hPa WSW 0.3 km/h 8 km/h 73.6% 0 mm 285 W/m2
10:59 26.9 °C 21.8 °C 1022.9 hPa WSW 0.2 km/h 8 km/h 73.4% 0 mm 207 W/m2
11:04 26.9 °C 21.9 °C 1022.9 hPa WSW 0.3 km/h 8 km/h 74.2% 0 mm 213 W/m2
11:09 26.9 °C 22 °C 1022.9 hPa Calm   6.4 km/h 74.3% 0 mm 327 W/m2
11:14 26.9 °C 22.1 °C 1022.9 hPa WSW 0.5 km/h 8 km/h 74.7% 0 mm 327 W/m2
11:19 26.9 °C 22.1 °C 1022.9 hPa Calm   8 km/h 74.8% 0 mm 271 W/m2
11:24 26.9 °C 22.3 °C 1022.9 hPa Calm   8 km/h 75.7% 0 mm 207 W/m2
11:29 26.9 °C 22.3 °C 1022.9 hPa SW 1.1 km/h 9.7 km/h 75.7% 0 mm 274 W/m2
11:34 27 °C 22.3 °C 1022.9 hPa SSW 2.1 km/h 19.3 km/h 75.7% 0 mm 817 W/m2
11:39 27.1 °C 22.2 °C 1022.9 hPa SSE 1.4 km/h 19.3 km/h 75% 0 mm 784 W/m2
11:44 27.1 °C 22.3 °C 1022.9 hPa SSW 1.9 km/h 19.3 km/h 75.1% 0 mm 380 W/m2
11:49 27.2 °C 22.3 °C 1022.9 hPa South 1 km/h 19.3 km/h 74.9% 0 mm 380 W/m2
11:54 27.3 °C 22.4 °C 1022.6 hPa South 1 km/h 19.3 km/h 74.7% 0 mm 325 W/m2
11:59 27.5 °C 22.7 °C 1022.6 hPa SW 2.1 km/h 19.3 km/h 74.8% 0 mm 947 W/m2
12:00 27.7 °C 22.6 °C 1022.6 hPa Calm   19.3 km/h 74% 0 mm 693 W/m2
12:09 28.1 °C 22.4 °C 1022.6 hPa SSW 1.1 km/h 11.3 km/h 71.4% 0 mm 679 W/m2
12:14 28.2 °C 22.6 °C 1022.6 hPa SW 2.9 km/h 14.5 km/h 71.7% 0 mm 947 W/m2
12:19 28.5 °C 22.9 °C 1022.6 hPa SW 3.5 km/h 14.5 km/h 71.7% 0 mm 947 W/m2
12:24 28.9 °C 22.8 °C 1022.2 hPa SW 3.2 km/h 17.7 km/h 69.8% 0 mm 942 W/m2
12:29 29.1 °C 23 °C 1022.2 hPa SSW 2.4 km/h 17.7 km/h 69.5% 0 mm 969 W/m2
12:34 29.3 °C 22.9 °C 1022.2 hPa SSW 2.3 km/h 17.7 km/h 68.5% 0 mm 506 W/m2
12:39 29.3 °C 22.8 °C 1022.2 hPa SW 3.7 km/h 14.5 km/h 68.2% 0 mm 772 W/m2
12:44 29.3 °C 22.7 °C 1022.2 hPa SW 4.5 km/h 16.1 km/h 67.7% 0 mm 824 W/m2
12:49 29.3 °C 22.4 °C 1022.2 hPa SSW 3.5 km/h 20.9 km/h 66.4% 0 mm 849 W/m2
12:54 29.3 °C 22.4 °C 1022.2 hPa SSW 1 km/h 20.9 km/h 66.6% 0 mm 918 W/m2
12:59 29.2 °C 22.6 °C 1021.9 hPa SSW 1.4 km/h 20.9 km/h 67.7% 0 mm 918 W/m2
13:04 29.1 °C 22.4 °C 1021.9 hPa SSW 1.9 km/h 20.9 km/h 67.4% 0 mm 740 W/m2
13:09 29 °C 22.6 °C 1021.9 hPa SW 1.3 km/h 8 km/h 68.2% 0 mm 374 W/m2
13:14 28.9 °C 22.6 °C 1021.6 hPa SSW 3.5 km/h 11.3 km/h 68.5% 0 mm 374 W/m2
13:19 29.1 °C 22.7 °C 1021.6 hPa South 2.4 km/h 11.3 km/h 68.8% 0 mm 995 W/m2
13:24 29.2 °C 22.7 °C 1021.6 hPa SSW 2.3 km/h 11.3 km/h 68.2% 0 mm 292 W/m2
13:29 29.1 °C 22.7 °C 1021.6 hPa SSW 1.4 km/h 11.3 km/h 68.4% 0 mm 983 W/m2
13:34 29.2 °C 23.2 °C 1021.6 hPa South 1.8 km/h 11.3 km/h 70.1% 0 mm 979 W/m2
13:39 29.4 °C 23.2 °C 1021.6 hPa SSW 3.5 km/h 20.9 km/h 69.3% 0 mm 930 W/m2
13:44 29.6 °C 22.9 °C 1021.6 hPa SW 3.7 km/h 20.9 km/h 67.6% 0 mm 962 W/m2
13:49 29.8 °C 23.1 °C 1021.6 hPa SSW 3.1 km/h 20.9 km/h 67.5% 0 mm 882 W/m2
13:54 29.8 °C 22.7 °C 1021.2 hPa SSW 5.1 km/h 20.9 km/h 65.6% 0 mm 926 W/m2
13:59 29.6 °C 22.4 °C 1021.2 hPa SSW 3.2 km/h 20.9 km/h 65.4% 0 mm 733 W/m2
14:04 29.4 °C 22.3 °C 1021.2 hPa SSW 1.4 km/h 20.9 km/h 65.9% 0 mm 441 W/m2
14:09 29.2 °C 22.6 °C 1021.2 hPa SSW 1.1 km/h 9.7 km/h 67.4% 0 mm 343 W/m2
14:14 29 °C 22.5 °C 1021.2 hPa SSW 1.6 km/h 9.7 km/h 67.8% 0 mm 977 W/m2
14:19 28.9 °C 22.6 °C 1021.2 hPa SSW 2.7 km/h 11.3 km/h 68.3% 0 mm 977 W/m2
14:24 28.9 °C 22.4 °C 1021.2 hPa SW 1.6 km/h 11.3 km/h 68% 0 mm 431 W/m2
14:29 29.1 °C 22.8 °C 1021.2 hPa SW 1.3 km/h 11.3 km/h 69.3% 0 mm 373 W/m2
14:34 29.2 °C 22.8 °C 1021.2 hPa SSW 2.6 km/h 11.3 km/h 68.5% 0 mm 373 W/m2
14:39 29.1 °C 22.5 °C 1020.9 hPa SSW 3.9 km/h 9.7 km/h 67.6% 0 mm 323 W/m2
14:44 28.9 °C 22.4 °C 1020.9 hPa South 1.3 km/h 9.7 km/h 68.1% 0 mm 380 W/m2
14:49 28.8 °C 22.4 °C 1020.9 hPa SSW 3.4 km/h 9.7 km/h 68.1% 0 mm 747 W/m2
14:54 28.8 °C 22.3 °C 1020.9 hPa SSW 2.9 km/h 9.7 km/h 68% 0 mm 301 W/m2
14:59 28.7 °C 22.5 °C 1020.9 hPa South 3.4 km/h 11.3 km/h 69.1% 0 mm 294 W/m2
15:04 28.6 °C 22.4 °C 1020.9 hPa SW 3.2 km/h 11.3 km/h 69.5% 0 mm 290 W/m2
15:09 28.5 °C 22.3 °C 1020.9 hPa SSW 2.7 km/h 12.9 km/h 69.5% 0 mm 290 W/m2
15:14 28.4 °C 22.4 °C 1020.9 hPa SW 4.2 km/h 17.7 km/h 70% 0 mm 265 W/m2
15:19 28.3 °C 22.3 °C 1020.9 hPa SSW 2.9 km/h 17.7 km/h 70% 0 mm 179 W/m2
15:24 28.2 °C 22.3 °C 1020.9 hPa SW 3.9 km/h 17.7 km/h 70.5% 0 mm 160 W/m2
15:29 27.9 °C 22.2 °C 1020.9 hPa SSW 2.3 km/h 17.7 km/h 71% 0 mm 188 W/m2
15:34 27.8 °C 22.2 °C 1020.9 hPa SSW 3.1 km/h 17.7 km/h 71.5% 0 mm 167 W/m2
15:39 27.7 °C 22.2 °C 1020.9 hPa SSW 2.6 km/h 9.7 km/h 72% 0 mm 176 W/m2
15:44 27.6 °C 22.3 °C 1020.9 hPa South 2.9 km/h 11.3 km/h 72.9% 0 mm 118 W/m2
15:49 27.6 °C 22.3 °C 1020.9 hPa South 1.4 km/h 11.3 km/h 73% 0 mm 167 W/m2
15:54 27.4 °C 22.3 °C 1020.9 hPa South 1.9 km/h 11.3 km/h 73.7% 0 mm 179 W/m2
15:59 27.4 °C 22.5 °C 1020.9 hPa SSW 1.4 km/h 11.3 km/h 74.5% 0 mm 274 W/m2
16:00 27.5 °C 22.7 °C 1020.9 hPa Calm   11.3 km/h 75% 0 mm 251 W/m2
16:09 27.5 °C 22.4 °C 1020.9 hPa SW 3.9 km/h 20.9 km/h 73.7% 0 mm 223 W/m2
16:14 27.6 °C 22.7 °C 1020.9 hPa SSW 3.4 km/h 20.9 km/h 74.7% 0 mm 209 W/m2
16:19 27.6 °C 22.6 °C 1020.9 hPa SW 4 km/h 20.9 km/h 74% 0 mm 204 W/m2
16:24 27.6 °C 22.5 °C 1020.9 hPa South 5.5 km/h 20.9 km/h 74% 0 mm 230 W/m2
16:29 27.4 °C 22.6 °C 1020.9 hPa South 4.2 km/h 20.9 km/h 74.7% 0 mm 269 W/m2
16:34 27.3 °C 22.7 °C 1020.9 hPa SSW 2.1 km/h 20.9 km/h 76% 0 mm 207 W/m2
16:39 27.3 °C 22.7 °C 1020.9 hPa SW 2.1 km/h 11.3 km/h 76.2% 0 mm 199 W/m2
16:44 27.3 °C 22.7 °C 1020.9 hPa SSW 1.3 km/h 11.3 km/h 75.7% 0 mm 185 W/m2
16:49 27.4 °C 22.7 °C 1020.9 hPa SSW 2.6 km/h 11.3 km/h 75.3% 0 mm 167 W/m2
16:54 27.4 °C 22.6 °C 1020.9 hPa SW 2.7 km/h 11.3 km/h 74.8% 0 mm 149 W/m2
16:59 27.4 °C 22.6 °C 1020.9 hPa SSW 1.6 km/h 16.1 km/h 74.9% 0 mm 151 W/m2
17:04 27.4 °C 22.6 °C 1020.5 hPa South 1.1 km/h 16.1 km/h 75.2% 0 mm 158 W/m2
17:09 27.3 °C 22.5 °C 1020.5 hPa SW 1.8 km/h 9.7 km/h 75% 0 mm 183 W/m2
17:14 27.3 °C 22.5 °C 1020.5 hPa SSW 2.9 km/h 17.7 km/h 75% 0 mm 190 W/m2
17:19 27.4 °C 22.7 °C 1020.2 hPa SW 1 km/h 17.7 km/h 75.2% 0 mm 174 W/m2
17:24 27.6 °C 22.7 °C 1020.5 hPa SSW 2.4 km/h 17.7 km/h 74.7% 0 mm 116 W/m2
17:29 27.7 °C 22.6 °C 1020.5 hPa South 3.1 km/h 17.7 km/h 73.8% 0 mm 86 W/m2
17:34 27.6 °C 22.4 °C 1020.5 hPa SW 2.6 km/h 17.7 km/h 73.5% 0 mm 97 W/m2
17:39 27.4 °C 22.4 °C 1020.2 hPa SSW 2.1 km/h 14.5 km/h 74.2% 0 mm 74 W/m2
17:44 27.3 °C 22.4 °C 1020.2 hPa SSE 1.4 km/h 14.5 km/h 74.6% 0 mm 69 W/m2
17:49 27.1 °C 22.3 °C 1020.2 hPa South 2.3 km/h 14.5 km/h 75% 0 mm 42 W/m2
17:54 26.9 °C 22.1 °C 1020.2 hPa South 1.6 km/h 14.5 km/h 75% 0 mm 63 W/m2
17:59 26.8 °C 22.2 °C 1020.2 hPa SSW 2.7 km/h 14.5 km/h 76% 0 mm 72 W/m2
18:04 26.7 °C 22.2 °C 1020.2 hPa SSW 1.6 km/h 14.5 km/h 76.4% 0 mm 91 W/m2
18:09 26.7 °C 22.3 °C 1020.2 hPa SSW 0.8 km/h 9.7 km/h 77% 0 mm 118 W/m2
18:14 26.7 °C 22.3 °C 1020.2 hPa SSW 0.2 km/h 9.7 km/h 77% 0 mm 111 W/m2
18:19 26.7 °C 22.3 °C 1020.2 hPa South 1.9 km/h 11.3 km/h 77% 0 mm 123 W/m2
18:24 26.7 °C 22.3 °C 1020.2 hPa SSW 1.1 km/h 11.3 km/h 77% 0 mm 104 W/m2
18:29 26.7 °C 22.3 °C 1020.2 hPa WSW 1 km/h 11.3 km/h 77% 0 mm 93 W/m2
18:34 26.7 °C 22.3 °C 1020.2 hPa SW 1.4 km/h 11.3 km/h 77% 0 mm 65 W/m2
18:39 26.6 °C 22.2 °C 1020.2 hPa South 1.8 km/h 9.7 km/h 77% 0 mm 46 W/m2
18:44 26.5 °C 22.1 °C 1020.2 hPa SSW 3.2 km/h 12.9 km/h 77% 0 mm 46 W/m2
18:49 26.4 °C 22.2 °C 1020.2 hPa SSW 0.6 km/h 12.9 km/h 77.9% 0 mm 56 W/m2
18:54 26.3 °C 22.2 °C 1020.2 hPa SSW 1 km/h 12.9 km/h 78% 0 mm 54 W/m2
18:59 26.3 °C 22.1 °C 1020.2 hPa SSW 2.1 km/h 12.9 km/h 78% 0 mm 40 W/m2
19:04 26.2 °C 22.1 °C 1020.2 hPa South 2.3 km/h 12.9 km/h 78% 0 mm 30 W/m2
19:09 26.2 °C 22.1 °C 1020.2 hPa Calm   11.3 km/h 78.4% 0 mm 21 W/m2
19:14 26.1 °C 22.2 °C 1020.2 hPa SSW 0.2 km/h 11.3 km/h 79% 0 mm 23 W/m2
19:19 26.1 °C 22.2 °C 1020.2 hPa South 1.8 km/h 11.3 km/h 79% 0 mm 21 W/m2
19:20 26.1 °C 22.1 °C 1020.2 hPa South 4.7 km/h 11.3 km/h 79% 0 mm 21 W/m2
19:30 25.9 °C 22.2 °C 1020.2 hPa South 1.6 km/h 11.3 km/h 80% 0 mm 20 W/m2
20:04 25.4 °C 21.9 °C 1020.2 hPa SSW 1.1 km/h 11.3 km/h 80.9% 0 mm 20 W/m2
20:09 25.3 °C 21.8 °C 1019.9 hPa SSW 1.3 km/h 8 km/h 81% 0 mm 5 W/m2
20:14 25.3 °C 21.8 °C 1019.9 hPa SW 1.3 km/h 8 km/h 81.3% 0 mm 5 W/m2
20:19 25.2 °C 21.9 °C 1019.9 hPa SW 0.8 km/h 8 km/h 82% 0 mm 0 W/m2
20:24 25.2 °C 21.8 °C 1019.9 hPa SW 1.4 km/h 8 km/h 82% 0 mm 0 W/m2
20:29 25.1 °C 21.8 °C 1019.9 hPa SW 0.2 km/h 8 km/h 82% 0 mm 0 W/m2
20:34 25.1 °C 21.8 °C 1020.2 hPa SW 0.6 km/h 8 km/h 82% 0 mm 0 W/m2
20:39 25 °C 21.7 °C 1020.2 hPa Calm   6.4 km/h 82.2% 0 mm 0 W/m2
20:44 24.9 °C 21.8 °C 1019.9 hPa SW 0.3 km/h 6.4 km/h 83% 0 mm 0 W/m2
20:49 24.9 °C 21.8 °C 1019.9 hPa SSW 1.1 km/h 11.3 km/h 83% 0 mm 0 W/m2
20:54 24.8 °C 21.7 °C 1019.9 hPa SSW 0.2 km/h 11.3 km/h 83% 0 mm 0 W/m2
20:59 24.7 °C 21.7 °C 1020.2 hPa SSW 0.2 km/h 11.3 km/h 83.3% 0 mm 0 W/m2
21:04 24.7 °C 21.8 °C 1020.2 hPa SSW 0.8 km/h 11.3 km/h 84% 0 mm 0 W/m2
21:09 24.6 °C 21.7 °C 1020.2 hPa SSW 0.8 km/h 8 km/h 84% 0 mm 0 W/m2
21:14 24.6 °C 21.7 °C 1020.2 hPa SW 1.1 km/h 11.3 km/h 84% 0 mm 0 W/m2
21:19 24.5 °C 21.7 °C 1020.2 hPa SW 1 km/h 11.3 km/h 84% 0 mm 0 W/m2
21:24 24.5 °C 21.7 °C 1020.2 hPa SSW 1.6 km/h 11.3 km/h 84.3% 0 mm 0 W/m2
21:29 24.4 °C 21.8 °C 1020.2 hPa SSW 0.5 km/h 11.3 km/h 85% 0 mm 0 W/m2
21:34 24.4 °C 21.8 °C 1020.2 hPa SSW 0.8 km/h 11.3 km/h 85% 0 mm 0 W/m2
21:39 24.4 °C 21.7 °C 1020.2 hPa SSW 0.2 km/h 6.4 km/h 85% 0 mm 0 W/m2
21:44 24.4 °C 21.7 °C 1020.2 hPa SSW 1 km/h 6.4 km/h 85% 0 mm 0 W/m2
21:49 24.4 °C 21.7 °C 1020.2 hPa Calm   6.4 km/h 85% 0 mm 0 W/m2
21:54 24.3 °C 21.7 °C 1020.2 hPa SSW 2.6 km/h 9.7 km/h 85% 0 mm 0 W/m2
21:59 24.3 °C 21.7 °C 1020.2 hPa South 1.6 km/h 9.7 km/h 85% 0 mm 0 W/m2
22:04 24.3 °C 21.7 °C 1020.5 hPa SSW 1.8 km/h 11.3 km/h 85% 0 mm 0 W/m2
22:09 24.3 °C 21.6 °C 1020.2 hPa SW 0.8 km/h 11.3 km/h 85% 0 mm 0 W/m2
22:14 24.2 °C 21.5 °C 1020.2 hPa SW 1.6 km/h 16.1 km/h 85% 0 mm 0 W/m2
22:19 24.1 °C 21.5 °C 1020.2 hPa SW 1.4 km/h 16.1 km/h 85.2% 0 mm 0 W/m2
22:24 24.1 °C 21.4 °C 1020.2 hPa SW 0.3 km/h 16.1 km/h 85.4% 0 mm 0 W/m2
22:29 24 °C 21.5 °C 1020.5 hPa SW 0.5 km/h 16.1 km/h 86% 0 mm 0 W/m2
22:34 23.9 °C 21.4 °C 1020.5 hPa Calm   16.1 km/h 86% 0 mm 0 W/m2
22:39 23.9 °C 21.4 °C 1020.5 hPa Calm     86% 0 mm 0 W/m2
22:44 23.9 °C 21.4 °C 1020.5 hPa SW 0.2 km/h 3.2 km/h 86% 0 mm 0 W/m2
22:49 23.8 °C 21.5 °C 1020.5 hPa SW 0.2 km/h 3.2 km/h 86.7% 0 mm 0 W/m2
22:54 23.8 °C 21.5 °C 1020.5 hPa Calm   3.2 km/h 87% 0 mm 0 W/m2
22:59 23.8 °C 21.5 °C 1020.5 hPa SW 0.2 km/h 4.8 km/h 87% 0 mm 0 W/m2
23:04 23.7 °C 21.4 °C 1020.5 hPa SW 0.8 km/h 6.4 km/h 87% 0 mm 0 W/m2
23:09 23.7 °C 21.4 °C 1020.2 hPa Calm   6.4 km/h 87% 0 mm 0 W/m2
23:14 23.7 °C 21.4 °C 1020.2 hPa SW 0.5 km/h 8 km/h 87% 0 mm 0 W/m2
23:19 23.7 °C 21.4 °C 1020.2 hPa SW 0.6 km/h 8 km/h 87% 0 mm 0 W/m2
23:24 23.6 °C 21.3 °C 1020.2 hPa SW 0.3 km/h 8 km/h 87% 0 mm 0 W/m2
23:29 23.6 °C 21.3 °C 1020.5 hPa Calm   8 km/h 87% 0 mm 0 W/m2
23:30 23.6 °C 21.3 °C 1020.5 hPa Calm   8 km/h 87% 0 mm 0 W/m2
Hartford County Weather
Compliments of Weather Underground - 2 mb